Regional Weather Roundup
Issued by NWS Midland/Odessa, TX

Skip options and go directly to product.
Home | Oldest Version | Previous Version | Current Version | All | Graphics & Text | Save Text | Print | Product List | Glossary On

Skip product version selection by date and time.   
470
ASUS44 KMAF 212310
RWRMAF
MIDLAND AREA WEATHER ROUNDUP
NATIONAL WEATHER SERVICE MIDLAND TX
500 PM CST SUN DEC 21 2014

...IN SOUTHWEST TEXAS AND SOUTHEAST NEW MEXICO...

CITY           SKY/WX    TMP DP  RH WIND       PRES   REMARKS
ALPINE         CLEAR     60  23  24 W16G24    29.96F
ANDREWS        FAIR      64  26  23 W14G22    29.72F
ARTESIA        MOCLDY    63  28  27 W17G24    29.78R
BIG SPRING     CLEAR     66  26  22 SW17G25   29.75F
CARLSBAD       MOCLDY    66  25  21 W23G36    29.74F
DRYDEN           N/A     66  44  45 SE10      29.81F
FORT STOCKTON  CLEAR     68  22  17 W23G29    29.80F
GUAD PASS      NOT AVBL
HOBBS          CLEAR     63  27  25 SW20G25   29.73F
MARFA          SUNNY     59  21  23 W20       29.95F
MIDLAND AIRPK  CLEAR     68  26  20 W20       29.74F
MIDLAND INTL   CLEAR     67  26  21 SW21G28   29.73F
ODESSA         CLEAR     66  23  19 W21G28    29.75F
PECOS          PTCLDY    67  25  20 W16       29.79F
PRESIDIO       FAIR      68  27  21 SW8       29.91R
SEMINOLE       CLEAR     63  26  24 W14       29.73F
SNYDER         CLEAR     65  29  26 SW18      29.70F
WINK           PTCLDY    66  23  19 W18       29.74F
$$
...OTHER STATIONS IN TEXAS...

CITY           SKY/WX    TMP DP  RH WIND       PRES   REMARKS
ABILENE        CLEAR     60  42  51 S17       29.74F
AMARILLO       CLOUDY    56  26  31 S7        29.62F
AUSTIN         CLOUDY    56  51  84 S12G17    29.90F
BROWNSVILLE    CLOUDY    65  61  87 N6        29.93R
CORPUS CHRISTI MOCLDY    60  54  80 SE7       29.94F
DALLAS FTW     CLOUDY    52  45  77 S13       29.85R
DEL RIO        CLOUDY    56  48  74 E6        29.88F
EL PASO        PTSUNNY   63  25  23 VRB3G25   29.91F
HOUSTON INT    CLOUDY    59  50  72 E7        29.95F
LUBBOCK        CLOUDY    63  25  23 W21G31    29.67S
SAN ANGELO     CLEAR     62  43  49 S15       29.77F
SAN ANTONIO    CLOUDY    55  50  83 SW12      29.92F
WACO           CLOUDY    53  46  77 S15G26    29.86F
WICHITA FALLS  NOT AVBL
$$
...OTHER LOCATIONS IN NEW MEXICO...

CITY           SKY/WX    TMP DP  RH WIND       PRES   REMARKS
ALAMAGORDO     MOSUNNY   55  27  33 NW5       29.92F
ALBUQUERQUE    MOCLDY    50  28  42 CALM      29.91F
CANNON AFB     CLOUDY    57  26  30 W17G25    29.66F
CLOVIS         CLOUDY    57  27  30 W24G30    29.65F
HOLLOMAN AFB   MOSUNNY   56  28  34 SW1       29.90F
ROSWELL        MOCLDY    65  25  22 W10       29.75R
RUIDOSO        PTCLDY    48  23  37 NW15G33   29.90S
SANTA FE       CLEAR     44  25  47 N8        29.89R WCI  39
TRUTH OR CONSE MOSUNNY   57  26  30 S7        29.90F
TUCUMCARI      CLOUDY    58  20  22 W13       29.61F
$$

USA.gov is the U.S. government's official web portal to all federal, state and local government web resources and services.